Andover, NJ

2:59 AM EST on December 09, 2019 (GMT -0500)
Andover

Weather History for K12N - September, 2019

Change the Weather History Date:

Thursday, September 12, 2019

  Actual Average (WUND) Record (WUND)
Temperature  
Mean Temperature 69 °F -  
Max Temperature 79 °F - - (-1)
Min Temperature 61 °F - - (-1)
Cooling Degree Days 4    
Growing Degree Days 19 (Base 50)    
Moisture  
Dew Point 65 °F    
Average Humidity 88    
Maximum Humidity 100    
Minimum Humidity 74    
Precipitation  
Precipitation 0.31 in - - ()
Sea Level Pressure  
Sea Level Pressure 30.11 in    
Wind  
Wind Speed 3 mph (NNE)    
Max Wind Speed 9 mph    
Max Gust Speed -    
Averages and records for this station are not official NWS values.
T = Trace of Precipitation, MM = Missing Value Source: NWS Daily Summary

Daily Weather History Graph

Daily Weather History Graph

Search for Another Location

Airport or City:

Astronomy

Sep. 12, 2019 Rise Set
Actual Time 6:36 AM EDT 7:13 PM EDT
Civil Twilight 6:08 AM EDT 7:41 PM EDT
Nautical Twilight 5:35 AM EDT 8:13 PM EDT
Astronomical Twilight 5:01 AM EDT 8:47 PM EDT
Moon 6:57 PM EDT (9/12) 4:52 AM EDT (9/12)
Length of Visible Light 13h 32m
Length of Day
12h 37m
Waxing Gibbous, 98% of the Moon is Illuminated
Sep 12
Waxing Gibbous
Sep 14
Full
Sep 21
Last Quarter
Sep 28
New
Oct 5
First Quarter

Hourly Weather History & Observations

Time (EDT) Temp. Dew Point Humidity Pressure Visibility Wind Dir Wind Speed Gust Speed Precip Events Conditions
12:54 AM 70.0 °F 70.0 °F 100% 30.02 in - Calm Calm - N/A   Unknown
1:54 AM 71.1 °F 70.0 °F 96% 30.01 in - Calm Calm - N/A   Unknown
2:54 AM 70.0 °F 70.0 °F 100% 30.00 in - Calm Calm - N/A   Unknown
3:54 AM 71.1 °F 70.0 °F 96% 30.02 in - Calm Calm - N/A   Unknown
4:54 AM 70.0 °F 70.0 °F 100% 30.00 in - Calm Calm - 0.31 in   Unknown
5:54 AM 69.1 °F 69.1 °F 100% 30.02 in - Calm Calm - N/A   Unknown
6:54 AM 69.1 °F 69.1 °F 100% 30.03 in - Calm Calm - N/A   Unknown
7:54 AM 71.1 °F 70.0 °F 96% 30.05 in - Calm Calm - N/A   Unknown
8:54 AM 73.0 °F 70.0 °F 90% 30.06 in - Variable 3.5 mph - N/A   Unknown
9:54 AM 75.9 °F 69.1 °F 79% 30.06 in - North 3.5 mph - N/A   Unknown
10:54 AM 77.0 °F 68.0 °F 74% 30.07 in - NNW 8.1 mph - N/A   Unknown
11:54 AM 77.0 °F 68.0 °F 74% 30.07 in - Variable 3.5 mph - N/A   Unknown
12:54 PM 72.0 °F 66.9 °F 84% 30.09 in - Variable 5.8 mph - N/A   Unknown
1:54 PM 72.0 °F 66.9 °F 84% 30.08 in - Variable 3.5 mph - N/A   Unknown
2:54 PM 73.0 °F 66.0 °F 79% 30.08 in - Variable 5.8 mph - N/A   Unknown
3:54 PM 68.0 °F 62.1 °F 81% 30.10 in - NE 6.9 mph - N/A   Unknown
4:54 PM 66.9 °F 61.0 °F 81% 30.12 in - Variable 5.8 mph - N/A   Unknown
5:54 PM 64.0 °F 60.1 °F 87% 30.16 in - NNE 8.1 mph - N/A   Unknown
6:54 PM 63.0 °F 60.1 °F 90% 30.19 in - Variable 6.9 mph - N/A   Unknown
7:54 PM 63.0 °F 57.9 °F 84% 30.22 in - NNE 9.2 mph - N/A   Unknown
8:54 PM 61.0 °F 57.0 °F 87% 30.25 in - NNE 9.2 mph - N/A   Unknown
9:54 PM 61.0 °F 57.0 °F 87% 30.27 in - NNE 5.8 mph - N/A   Unknown
10:54 PM 61.0 °F 55.9 °F 83% 30.28 in - Variable 6.9 mph - N/A   Unknown
11:54 PM 61.0 °F 57.0 °F 87% 30.29 in - Variable 4.6 mph - N/A   Unknown